Regional Weather Roundup
Issued by NWS State College, PA

Home | Current Version | Previous Version | Graphics & Text | Print | Product List | Glossary On
Versions: 1 2 3 4 5 6 7 8 9 10 11 12 13 14 15 16 17 18 19 20 21 22 23 24 25 26 27 28 29 30 31 32 33 34 35 36 37 38 39 40 41 42 43 44 45 46 47 48 49 50
000
ASUS41 KCTP 221110
RWRCTP

REGIONAL WEATHER ROUNDUP
NATIONAL WEATHER SERVICE STATE COLLEGE PA
700 AM EDT FRI AUG 22 2014

Note: "fair" indicates few or no clouds below 12,000 feet with no
significant weather and/or obstructions to visibility.

* = STATION THAT DOES NOT REPORT PRECIPITATION /E.G. RAIN...SNOW...ETC/
    THUNDER OR FOG.

PAZ002>004-007>009-013>016-020>023-029>032-221200-
WESTERN PENNSYLVANIA

CITY           SKY/WX    TMP DP  RH WIND       PRES   REMARKS
ERIE           CLOUDY    71  67  87 S6        29.98R
MEADVILLE      CLOUDY    68  67  96 S5        30.01S FOG
FRANKLIN*      CLOUDY    66  64  94 SW3       30.03S VSB 1
NEW CASTLE     NOT AVBL
BEAVER COUNTY  FOG       68  66  94 CALM      30.02  VSB 1
BUTLER*        CLOUDY    68  66  94 SW5       30.04R
PITTSBURGH INT CLOUDY    68  67  96 CALM      30.01R FOG
PITTSBURGH     FOG       68  66  93 S5        30.02R VSB 1
INDIANA*       CLOUDY    70  68  94 CALM      30.06R FOG
LATROBE        CLOUDY    70  70 100 SW6       30.03R FOG
WASHINGTON CO* CLOUDY    66  66 100 CALM      30.02R
$$

PAZ004>006-010>012-017>019-024>028-033>037-041-042-045-046-049>053-221200-
CENTRAL PENNSYLVANIA

CITY           SKY/WX    TMP DP  RH WIND       PRES   REMARKS
BRADFORD       CLOUDY    66  64  93 SW3       30.04R FOG
DUBOIS         FOG       67  66  97 CALM      30.03R VSB 1
CLEARFIELD     FOG       66  66 100 CALM      30.03R VSB<1/4
JOHNSTOWN      CLOUDY    66  64  93 SW3       30.06R
ALTOONA        CLOUDY    65  64  97 CALM      30.04R FOG
STATE COLLEGE  CLOUDY    66  66 100 CALM      30.03R FOG
WILLIAMSPORT   CLOUDY    66  64  93 CALM      29.99R FOG
SELINSGROVE    CLOUDY    69  67  93 CALM      30.00R FOG
FT INDIANTOWN  CLOUDY    68  68 100 CALM      30.01R
CAPITAL CITY   CLOUDY    68  66  93 CALM      29.99F FOG
HARRISBURG     CLOUDY    69  66  90 CALM      29.99R FOG
YORK           CLOUDY    65  65 100 CALM      29.99F FOG
$$

PAZ038>040-043-044-047-048-054-055-060>062-067>071-221200-
EASTERN PENNSYLVANIA

CITY           SKY/WX    TMP DP  RH WIND       PRES   REMARKS
SCRANTON       CLOUDY    67  63  87 E3        30.01R
MOUNT POCONO   FOG       62  61  96 SE3       30.04S VSB<1/4
ALLENTOWN      CLOUDY    67  64  90 E6        30.01R
QUAKERTOWN*    CLOUDY    66  64  94 CALM      30.03R
READING        MOCLDY    68  66  93 NE3       29.99R
LANCASTER      MOCLDY    67  65  93 CALM      30.00R
COATESVILLE    CLOUDY    66  66 100 E9        30.02R
POTTSTOWN      CLOUDY    67  65  93 E3        30.03R
BLUE BELL      CLOUDY    68  66  94 E3        30.01R
DOYLESTOWN     CLOUDY    65  65 100 CALM      30.01R
WILLOW GROVE   NOT AVBL
NORTH PHILA    CLOUDY    68  63  84 E7        30.02R
PHILADELPHIA   MOCLDY    68  65  90 E9        30.00R
$$



USA.gov is the U.S. government's official web portal to all federal, state and local government web resources and services.